SCP
0 0 0 0 0 0 0 0 0 0 0 0 0 0 0 0 0 0 0 0 0 0 0 0 1 1 1 1 1 1 1 1 2 2 1 1 1 1 1 1 1 1 0 0
0 0 0 0 0 0 0 0 0 0 0 0 0 0 0 0 0 0 0 0 0 0 0 0 1 1 1 1 1 1 1 1 2 2 1 1 1 1 1 1 1 0 0 0
0 0 0 0 0 0 0 0 0 0 0 0 0 0 0 0 0 0 0 0 0 0 0 0 1 1 1 1 1 1 2 2 2 2 2 1 1 1 1 1 1 0 0 0
0 0 0 0 0 0 0 0 0 0 0 0 0 0 0 0 0 0 0 0 0 0 0 0 0 1 1 0 1 1 1 2 2 2 2 2 1 1 1 1 1 1 0 0
0 0 0 0 0 0 0 0 0 0 0 0 0 0 0 0 0 0 0 0 0 0 0 0 0 1 1 1 0 1 1 1 2 2 2 2 2 2 1 1 1 1 0 0
0 0 0 0 0 0 0 0 0 0 0 0 0 0 0 0 0 0 0 0 0 0 0 0 0 1 1 1 1 1 1 1 1 2 2 2 2 2 2 2 1 1 1 1
0 0 0 0 0 0 0 0 0 0 0 0 0 0 0 0 0 0 0 0 0 0 0 0 0 0 1 1 1 1 1 1 1 1 1 2 2 2 3 2 2 2 1 1
0 0 0 0 0 0 0 0 0 0 0 0 0 0 0 0 0 0 0 0 0 0 0 0 0 0 0 1 1 0 1 1 1 1 1 1 1 2 2 3 3 3 2 2
0 0 0 0 0 0 0 0 0 0 0 0 0 0 0 0 0 0 0 0 0 0 0 0 0 0 0 0 0 0 0 0 1 1 0 0 0 1 1 2 2 2 2 2
0 0 0 0 0 0 0 0 0 0 0 0 0 0 0 0 0 0 0 0 0 0 0 0 0 0 0 0 0 0 0 0 0 0 0 0 0 0 0 1 1 1 1 1
0 0 0 0 0 0 0 0 0 0 0 0 0 0 0 0 0 0 0 0 0 0 0 0 0 0 0 0 0 0 0 0 0 0 0 0 0 0 0 0 0 0 0 0
0 0 0 0 0 0 0 0 0 0 0 0 0 0 0 0 0 0 0 0 0 0 0 0 0 0 0 0 0 0 0 0 0 0 0 0 0 0 0 0 0 0 0 0
0 0 0 0 0 0 0 0 0 0 0 0 0 0 0 0 0 0 0 0 0 0 0 0 0 0 0 0 0 0 0 0 0 0 0 0 0 0 0 0 0 0 0 0
0 0 0 0 0 0 0 0 0 0 0 0 0 0 0 0 0 0 0 0 0 0 0 0 0 0 0 0 0 0 0 0 0 0 0 0 0 0 0 0 0 0 0 0
0 0 0 0 0 0 0 0 0 0 0 0 0 0 0 0 0 0 0 0 0 0 0 0 0 0 0 0 0 0 0 0 0 0 0 0 0 0 0 0 0 0 0 0
0 0 0 0 0 0 0 0 0 0 0 0 0 0 0 0 0 0 0 0 0 0 0 0 0 0 0 0 0 0 0 0 0 0 0 0 0 0 0 0 0 0 0 0
0 0 0 0 0 0 0 0 0 0 0 0 0 0 0 0 0 0 0 0 0 0 0 0 0 0 0 0 0 0 0 0 0 0 0 0 0 0 0 0 0 0 0 0
0 0 0 0 0 0 0 0 0 0 0 0 0 0 0 0 0 0 0 0 0 0 0 0 0 0 0 0 0 0 0 0 0 0 0 0 0 0 0 0 0 0 0 0
0 0 0 0 0 0 0 0 0 0 0 0 0 0 0 0 0 0 0 0 0 0 0 0 0 0 0 0 0 0 0 0 0 0 0 0 0 0 0 0 0 0 0 0
0 0 0 0 0 0 0 0 0 0 0 0 0 0 0 0 0 0 0 0 0 0 0 0 0 0 0 0 0 0 0 0 0 0 0 0 0 0 0 0 0 0 0 0
0 0 0 0 0 0 0 0 0 0 0 0 0 0 0 0 0 0 0 0 0 0 0 0 0 0 0 0 0 0 0 0 0 0 0 0 0 0 0 0 0 0 0 0
0 0 0 0 0 0 0 0 0 0 0 0 0 0 0 0 0 0 0 0 0 0 0 0 0 0 0 0 0 0 0 0 0 0 0 0 0 0 0 0 0 0 0 0
0 0 0 0 0 0 0 0 0 0 0 0 0 0 0 0 0 0 0 0 0 0 0 0 0 0 0 0 0 0 0 0 0 0 0 0 0 0 0 0 0 0 0 0
0 0 0 0 0 0 0 0 0 0 0 0 0 0 0 0 0 0 0 0 0 0 0 0 0 0 0 0 0 0 0 0 0 0 0 0 0 0 0 0 0 0 0 0
0 0 0 0 0 0 0 0 0 0 0 0 0 0 0 0 0 0 0 0 0 0 0 0 0 0 0 0 0 0 0 0 0 0 0 0 0 0 0 0 0 0 0 0
0 0 0 0 0 0 0 0 0 0 0 0 0 0 0 0 0 0 0 0 0 0 0 0 0 0 0 0 0 0 0 0 0 0 0 0 0 0 0 0 0 0 0 0
Wind_Speed
0 1 1 1 1 2 2 1 1 2 2 1 2 5 6 4 4 5 4 4 4 3 2 2 2 3 2 2 1 1 1 1 1 1 2 2 2 1 1 1 1 1 1 1
2 1 1 2 0 1 1 0 1 1 2 0 2 6 7 5 6 5 5 4 3 2 2 2 3 3 2 1 1 1 1 1 1 1 2 2 2 2 2 1 1 1 1 1
2 2 1 0 1 0 1 1 0 1 2 3 3 5 4 3 3 3 2 2 2 3 3 3 3 3 2 2 1 1 1 1 1 2 2 1 1 1 1 1 1 1 1 1
2 2 1 1 1 1 0 2 1 0 1 2 2 3 3 3 2 3 3 2 3 2 3 3 3 3 2 2 2 1 1 1 0 2 3 3 3 2 2 2 2 2 2 2
2 2 2 1 1 1 1 1 0 1 1 2 2 2 5 2 2 3 3 3 3 3 3 3 3 3 2 2 2 1 1 0 0 1 3 3 3 2 1 1 2 2 2 2
2 2 2 1 1 1 2 1 2 2 1 3 3 3 4 2 3 2 3 4 3 3 2 2 2 2 2 2 2 1 1 0 0 1 2 3 3 2 2 2 2 2 1 1
2 2 1 1 0 2 2 1 0 1 1 4 2 2 6 2 2 2 3 4 4 4 3 2 2 2 2 2 2 1 1 1 1 1 1 2 3 3 3 3 2 2 2 1
2 1 2 0 0 1 2 1 2 2 2 2 1 4 5 1 2 2 2 3 4 4 3 2 2 2 2 3 2 2 2 1 1 2 2 1 2 2 2 3 2 2 2 2
2 1 2 1 1 1 0 1 1 1 1 2 4 3 2 1 2 2 2 3 3 3 3 3 2 2 2 2 2 2 2 2 1 1 1 1 1 2 3 3 2 2 1 1
0 2 1 2 1 1 2 1 1 2 1 3 3 3 4 4 4 4 4 3 3 3 3 3 3 2 2 2 2 2 2 2 1 1 2 1 1 1 2 2 2 1 1 1
0 3 1 1 3 3 1 1 1 1 1 2 3 5 2 5 5 4 4 4 4 4 4 3 3 2 2 2 2 2 1 1 1 1 1 1 1 1 1 1 2 2 1 1
1 2 2 2 1 2 1 2 3 3 3 2 2 6 1 3 3 3 3 3 3 3 3 3 3 2 2 2 2 2 2 2 2 1 1 1 0 0 1 1 1 1 1 1
2 3 1 1 1 1 3 3 3 1 1 3 4 7 1 2 2 2 2 2 3 3 3 2 2 2 2 2 2 2 2 2 1 1 1 1 0 1 1 1 1 1 1 1
2 3 5 6 2 3 4 4 5 4 4 5 8 8 5 3 3 2 3 3 3 3 3 3 2 2 2 2 2 2 2 2 1 1 1 1 1 1 1 1 1 1 1 1
2 3 3 4 3 1 4 6 8 10 8 8 8 9 11 6 5 3 3 3 3 3 3 3 3 3 2 2 2 2 2 1 2 2 1 2 1 1 1 1 1 1 1 1
1 2 1 4 3 4 6 8 10 11 9 11 10 13 9 6 4 3 3 3 4 4 4 4 3 3 3 3 2 2 1 1 1 1 1 1 1 1 1 1 1 1 1 1
4 4 2 3 1 3 10 11 12 9 10 9 14 15 6 5 5 5 5 5 5 5 4 4 4 3 3 3 3 3 2 1 1 1 1 1 1 1 1 1 1 1 1 1
5 4 3 1 1 8 10 5 11 11 11 12 11 9 7 7 5 4 5 6 6 5 5 4 3 3 2 2 2 2 2 2 2 1 1 1 1 2 1 1 2 2 2 2
4 5 4 3 5 10 7 5 7 8 10 12 14 12 8 3 2 5 5 5 6 5 4 3 3 3 2 2 2 2 2 1 1 2 2 2 2 2 2 2 3 2 2 2
3 3 4 4 5 9 7 5 5 5 8 8 11 12 8 4 4 7 3 4 3 2 2 2 2 3 2 2 2 3 2 2 3 3 3 2 2 2 3 3 3 2 2 2
5 5 7 8 8 10 5 5 7 6 9 4 9 10 8 8 8 4 3 3 3 2 2 2 3 2 2 2 3 3 2 3 3 2 1 1 2 2 2 2 2 2 2 2
11 9 9 7 9 13 6 9 11 9 3 2 4 5 6 6 3 2 2 3 3 2 2 2 2 2 1 2 2 2 3 3 1 1 1 2 2 2 1 1 2 2 2 2
11 11 8 12 12 4 9 9 7 3 3 2 3 3 4 4 4 3 2 2 2 2 2 2 2 1 1 1 2 3 3 1 0 1 2 2 2 2 1 2 2 2 2 2
7 4 4 7 9 6 6 5 4 3 3 2 2 2 3 4 3 3 2 2 1 1 1 1 2 2 1 1 1 2 1 0 1 2 2 2 1 2 2 2 2 2 3 3
7 7 6 9 8 4 6 8 7 6 4 3 2 2 3 4 3 3 3 3 2 2 1 2 2 3 2 1 1 1 1 1 2 2 2 2 2 2 2 2 3 4 4 4
8 9 10 11 7 7 7 6 7 7 7 6 5 4 3 4 5 4 4 3 2 2 2 2 2 2 2 1 1 1 1 2 2 2 2 2 2 2 2 2 3 6 6 7
Wind_Direction
98 79 66 336 258 312 3 30 349 57 86 87 238 271 272 236 217 225 221 209 210 211 190 162 143 122 115 111 112 167 186 177 162 171 172 174 171 170 148 137 141 144 130 145
118 56 351 347 6 304 284 225 312 48 84 52 301 283 270 249 226 225 219 208 208 210 171 147 142 131 135 146 159 177 226 202 175 180 178 168 156 164 157 147 144 147 132 147
109 64 29 53 46 54 315 213 293 349 335 241 268 294 239 228 207 199 211 214 209 199 186 172 167 166 157 172 190 210 214 224 197 171 155 140 116 114 151 150 166 181 154 149
76 44 50 75 1 356 279 62 64 285 296 269 198 289 269 197 198 197 204 206 214 201 187 175 172 174 182 197 188 195 182 189 167 167 168 168 170 184 195 178 181 180 166 150
79 44 31 70 7 348 96 60 337 276 275 300 226 231 276 181 229 219 193 186 189 181 179 180 178 178 181 169 164 181 185 204 146 147 170 180 193 194 172 155 167 169 165 159
95 72 28 13 34 159 146 190 216 242 264 277 223 196 268 214 223 199 168 163 166 157 160 167 159 151 162 151 147 155 168 208 128 140 170 185 192 189 175 190 190 184 176 176
145 126 90 339 116 166 203 156 56 356 292 252 176 194 250 226 141 146 159 163 157 158 162 167 163 162 169 167 166 177 180 201 184 169 193 210 205 199 202 203 203 198 189 194
164 198 148 58 350 216 231 246 156 199 242 275 181 231 248 148 104 104 126 143 146 147 155 165 171 165 169 175 179 184 188 206 202 200 217 231 223 211 217 213 203 199 205 209
175 172 107 110 339 329 239 228 360 105 87 301 254 242 277 142 153 165 163 154 158 160 159 159 158 154 158 170 181 192 201 210 213 220 225 224 226 225 224 220 207 199 202 203
150 138 143 139 225 300 320 335 114 149 179 260 265 239 233 213 218 203 194 189 183 168 162 160 163 166 163 163 167 170 184 198 204 203 216 226 230 237 246 226 217 207 215 207
144 134 148 171 201 194 175 201 209 190 208 204 259 260 221 183 184 190 199 187 179 177 175 173 172 172 162 149 155 169 191 194 193 194 204 219 237 247 253 247 242 227 225 218
166 135 183 189 105 7 256 232 185 178 234 230 245 269 292 136 143 162 179 171 163 164 165 162 165 161 154 158 169 185 188 197 209 193 183 207 236 279 260 273 282 274 244 235
146 139 120 287 246 280 248 235 228 214 169 197 210 259 204 138 173 177 183 185 170 168 167 162 163 167 172 177 184 193 190 199 200 183 175 193 213 230 257 277 289 282 261 262
143 164 188 205 207 175 210 217 204 188 198 220 225 244 255 239 233 216 202 197 184 183 184 180 185 198 198 194 192 198 200 184 176 181 178 201 240 243 251 260 270 271 262 251
151 199 221 246 269 221 220 216 200 210 218 219 239 239 248 245 241 228 211 198 198 204 204 203 205 208 211 208 207 201 195 175 172 180 195 223 244 251 255 260 268 290 302 284
171 190 194 258 243 255 261 241 217 222 232 242 259 266 253 249 240 230 214 206 216 218 218 219 214 211 214 209 206 204 205 196 169 192 224 239 248 257 260 270 284 300 302 306
174 159 169 250 258 317 265 226 206 213 214 207 231 243 239 242 237 228 224 219 218 221 220 218 213 211 213 207 199 205 201 175 177 214 239 240 242 252 258 263 260 255 256 264
169 168 183 227 87 242 244 191 195 214 228 220 237 249 236 235 244 241 225 221 228 223 222 221 214 210 201 190 187 183 164 167 190 221 239 245 247 254 263 257 254 260 261 254
191 178 183 185 234 265 266 210 185 201 247 223 228 243 249 252 318 277 238 208 216 215 210 205 193 180 168 174 177 158 164 178 197 228 241 241 235 245 253 255 258 262 260 261
211 196 195 198 218 242 244 186 161 151 263 228 211 225 225 186 226 250 214 179 187 183 178 169 154 143 155 174 150 151 181 198 226 236 240 238 226 229 244 256 269 278 264 264
178 196 209 212 231 254 234 154 130 174 242 213 197 209 201 202 218 213 160 156 161 151 146 138 139 150 170 157 144 168 193 226 240 243 243 243 234 237 243 258 272 272 267 273
180 183 200 199 224 247 183 152 184 214 227 195 195 204 201 212 215 199 178 172 161 155 149 145 147 160 138 134 150 188 229 244 241 227 239 247 246 247 248 249 265 261 247 256
203 195 192 201 218 225 174 194 210 210 225 225 209 212 191 202 210 200 197 192 179 174 176 155 158 162 141 147 160 213 253 273 232 228 243 248 252 248 238 234 250 262 244 246
229 214 219 247 252 242 220 229 237 232 231 239 210 202 193 205 207 204 209 214 208 193 181 161 156 183 236 209 183 222 263 144 194 231 246 249 245 261 254 243 235 238 241 244
208 184 216 248 260 278 251 228 231 231 229 235 239 226 210 203 215 213 220 223 214 209 193 170 182 204 231 223 211 246 238 183 220 233 242 250 247 249 253 248 244 248 247 244
199 192 200 230 222 215 239 225 214 217 226 224 219 230 225 205 213 214 220 221 211 206 193 185 201 211 230 231 246 253 222 199 208 234 243 243 245 247 248 259 278 262 264 272